This is the latest recevied weather packets stored in our database for station/object KG7FOQ-13. If no packets are shown the sender has not sent any weather packets the latest 10 day(s).
| Time | Temp. | Humidity | Pressure | Rain* | Wind** | Luminosity | Snow |
|---|---|---|---|---|---|---|---|
| 1778038160 | 13.33° C | 58% | 1008.1 hPa | 0 mm | - | - | - |
| 1778037859 | 13.89° C | 58% | 1008.1 hPa | 0 mm | - | - | - |
| 1778037559 | 13.89° C | 56% | 1008 hPa | 0 mm | - | - | - |
| 1778037258 | 13.89° C | 55% | 1008.1 hPa | 0 mm | - | - | - |
| 1778036958 | 13.89° C | 56% | 1008.1 hPa | 0 mm | - | - | - |
| 1778036657 | 14.44° C | 55% | 1008.1 hPa | 0 mm | - | - | - |
| 1778036357 | 14.44° C | 54% | 1008.1 hPa | 0 mm | - | - | - |
| 1778036053 | 14.44° C | 54% | 1008 hPa | 0 mm | - | - | - |
| 1778035753 | 14.44° C | 54% | 1008 hPa | 0 mm | - | - | - |
| 1778035452 | 15° C | 53% | 1007.8 hPa | 0 mm | - | - | - |
| 1778035152 | 15.56° C | 48% | 1007.6 hPa | 0 mm | - | - | - |
| 1778034851 | 15.56° C | 49% | 1007.5 hPa | 0 mm | - | - | - |
| 1778034551 | 15.56° C | 48% | 1007.5 hPa | 0 mm | - | - | - |
| 1778034250 | 15.56° C | 48% | 1007.3 hPa | 0 mm | - | - | - |
| 1778033949 | 15.56° C | 49% | 1007.5 hPa | 0 mm | - | - | - |
| 1778033649 | 15.56° C | 50% | 1007.6 hPa | 0 mm | - | - | - |
| 1778033348 | 16.11° C | 45% | 1007.4 hPa | 0 mm | - | - | - |
| 1778033048 | 17.22° C | 42% | 1007 hPa | 0 mm | - | - | - |
| 1778032747 | 17.22° C | 38% | 1006.5 hPa | 0 mm | - | - | - |
| 1778032447 | 20.56° C | 32% | 1006.8 hPa | 0 mm | - | - | - |
| 1778032146 | 20.56° C | 30% | 1006.1 hPa | 0 mm | - | - | - |
| 1778031545 | 20.56° C | 31% | 1006.2 hPa | 0 mm | - | - | - |
| 1778031245 | 20.56° C | 31% | 1006.1 hPa | 0 mm | - | - | - |
| 1778030944 | 20.56° C | 29% | 1006.2 hPa | 0 mm | - | - | - |
| 1778030644 | 20.56° C | 29% | 1006.5 hPa | 0 mm | - | - | - |
* Rain latest hour (hover to see other rain measurements)
** Current wind speed in m/s (hover to see current wind gust speed)